• In Lithuania
  • List of Countries
  • For 7 days
  • Water Temperature
  • Satellite Maps
  • Weather Map
  • Weather Widgets
  • user-avatar
    Login

    Hourly Weather Nepryadva

    Today, 23 June, Saturday

    Time Temperature Precipitation Wind Pressure Humidity
    00:00 +20°C° 0 mm 2 mps 740 mmHg 88%
    01:00 +20°C° 0 mm 2 mps 740 mmHg 89%
    02:00 +19°C° 0 mm 2 mps 740 mmHg 89%
    03:00 +20°C° 0 mm 1 mps 740 mmHg 88%
    04:00 +21°C° 0 mm 1 mps 740 mmHg 87%
    05:00 +21°C° 0 mm 1 mps 740 mmHg 86%
    06:00 +22°C° 0 mm 1 mps 741 mmHg 85%
    07:00 +23°C° 0 mm 2 mps 740 mmHg 80%
    08:00 +25°C° 0 mm 3 mps 740 mmHg 76%
    09:00 +26°C° 0 mm 3 mps 740 mmHg 72%
    10:00 +27°C° 0 mm 4 mps 740 mmHg 67%
    11:00 +28°C° 0 mm 5 mps 740 mmHg 62%
    12:00 +30°C° 0 mm 5 mps 740 mmHg 57%
    13:00 +30°C° 0 mm 5 mps 740 mmHg 56%
    14:00 +30°C° 0 mm 5 mps 739 mmHg 55%
    15:00 +32°C° 0 mm 6 mps 739 mmHg 53%
    16:00 +30°C° 0 mm 5 mps 739 mmHg 58%
    17:00 +30°C° 0 mm 4 mps 739 mmHg 63%
    18:00 +29°C° 0 mm 4 mps 739 mmHg 69%
    19:00 +28°C° 0 mm 4 mps 738 mmHg 71%
    20:00 +26°C° 0 mm 4 mps 738 mmHg 73%
    21:00 +23°C° 0 mm 5 mps 738 mmHg 74%
    22:00 +23°C° 0 mm 5 mps 738 mmHg 73%
    23:00 +23°C° 0 mm 5 mps 738 mmHg 72%

    Tomorrow, 24 June, Sunday

    Time Temperature Precipitation Wind Pressure Humidity
    00:00 +22°C° 0 mm 6 mps 738 mmHg 70%
    01:00 +22°C° 0 mm 5 mps 738 mmHg 71%
    02:00 +22°C° 0 mm 5 mps 738 mmHg 71%
    03:00 +21°C° 0 mm 5 mps 738 mmHg 71%
    04:00 +21°C° 0 mm 5 mps 738 mmHg 74%
    05:00 +21°C° 0 mm 4 mps 738 mmHg 76%
    06:00 +20°C° 0 mm 4 mps 738 mmHg 79%
    07:00 +21°C° 0 mm 4 mps 738 mmHg 77%
    08:00 +22°C° 0 mm 4 mps 738 mmHg 76%
    09:00 +23°C° 0 mm 4 mps 738 mmHg 74%
    10:00 +23°C° 0.4 mm 4 mps 739 mmHg 74%
    11:00 +24°C° 0.4 mm 3 mps 739 mmHg 74%
    12:00 +25°C° 0.4 mm 3 mps 739 mmHg 73%
    13:00 +24°C° 1.3 mm 3 mps 739 mmHg 77%
    14:00 +23°C° 1.3 mm 2 mps 739 mmHg 81%
    15:00 +21°C° 1.3 mm 2 mps 739 mmHg 85%
    16:00 +20°C° 0.8 mm 2 mps 740 mmHg 87%
    17:00 +19°C° 0.8 mm 3 mps 740 mmHg 90%
    18:00 +18°C° 0.8 mm 3 mps 740 mmHg 93%
    19:00 +17°C° 0.1 mm 3 mps 740 mmHg 93%
    20:00 +16°C° 0.1 mm 3 mps 740 mmHg 94%
    21:00 +14°C° 0.1 mm 3 mps 741 mmHg 95%
    22:00 +14°C° 0 mm 3 mps 741 mmHg 95%
    23:00 +13°C° 0 mm 3 mps 742 mmHg 95%

    Day after tomorrow, 25 June, Monday

    Time Temperature Precipitation Wind Pressure Humidity
    00:00 +14°C° 0 mm 2 mps 742 mmHg 95%
    01:00 +13°C° 0 mm 2 mps 742 mmHg 95%
    02:00 +13°C° 0 mm 2 mps 743 mmHg 95%
    03:00 +12°C° 0 mm 2 mps 743 mmHg 95%
    04:00 +13°C° 0 mm 2 mps 743 mmHg 93%
    05:00 +13°C° 0 mm 2 mps 743 mmHg 92%
    06:00 +14°C° 0 mm 2 mps 744 mmHg 91%
    07:00 +15°C° 0 mm 2 mps 744 mmHg 85%
    08:00 +17°C° 0 mm 2 mps 744 mmHg 79%
    09:00 +19°C° 0 mm 2 mps 745 mmHg 73%
    10:00 +20°C° 0 mm 2 mps 745 mmHg 69%
    11:00 +21°C° 0 mm 2 mps 745 mmHg 64%
    12:00 +23°C° 0 mm 2 mps 745 mmHg 60%
    13:00 +23°C° 0 mm 2 mps 745 mmHg 59%
    14:00 +23°C° 0 mm 2 mps 745 mmHg 58%
    15:00 +23°C° 0 mm 2 mps 745 mmHg 58%
    16:00 +23°C° 0 mm 2 mps 745 mmHg 59%
    17:00 +23°C° 0 mm 2 mps 746 mmHg 61%
    18:00 +23°C° 0 mm 2 mps 746 mmHg 63%
    19:00 +22°C° 0 mm 1 mps 746 mmHg 67%
    20:00 +20°C° 0 mm 1 mps 746 mmHg 71%
    21:00 +19°C° 0 mm 1 mps 746 mmHg 76%
    22:00 +18°C° 0 mm 1 mps 747 mmHg 79%
    23:00 +16°C° 0 mm 1 mps 747 mmHg 81%

    26 June, Tuesday

    Time Temperature Precipitation Wind Pressure Humidity
    00:00 +15°C° 0 mm 1 mps 747 mmHg 84%
    01:00 +15°C° 0 mm 1 mps 747 mmHg 86%
    02:00 +14°C° 0 mm 1 mps 747 mmHg 88%
    03:00 +14°C° 0 mm 1 mps 747 mmHg 89%
    04:00 +15°C° 0 mm 1 mps 747 mmHg 88%
    05:00 +15°C° 0 mm 1 mps 748 mmHg 87%
    06:00 +16°C° 0 mm 1 mps 748 mmHg 85%
    07:00 +17°C° 0 mm 2 mps 748 mmHg 80%
    08:00 +19°C° 0 mm 2 mps 748 mmHg 75%
    09:00 +21°C° 0 mm 2 mps 748 mmHg 69%
    10:00 +23°C° 0 mm 2 mps 748 mmHg 65%
    11:00 +24°C° 0 mm 2 mps 748 mmHg 61%
    12:00 +24°C° 0 mm 2 mps 748 mmHg 57%
    13:00 +25°C° 0 mm 2 mps 748 mmHg 56%
    14:00 +25°C° 0 mm 2 mps 748 mmHg 54%
    15:00 +26°C° 0 mm 2 mps 748 mmHg 53%
    16:00 +26°C° 0 mm 2 mps 748 mmHg 57%
    17:00 +25°C° 0 mm 2 mps 748 mmHg 61%
    18:00 +25°C° 0 mm 2 mps 747 mmHg 65%
    19:00 +24°C° 0 mm 2 mps 748 mmHg 69%
    20:00 +21°C° 0 mm 2 mps 748 mmHg 72%
    21:00 +19°C° 0 mm 2 mps 748 mmHg 76%
    22:00 +18°C° 0 mm 2 mps 748 mmHg 76%
    23:00 +18°C° 0 mm 2 mps 748 mmHg 77%

    27 June, Wednesday

    Time Temperature Precipitation Wind Pressure Humidity
    00:00 +17°C° 0 mm 2 mps 748 mmHg 78%
    01:00 +17°C° 0 mm 3 mps 748 mmHg 78%
    02:00 +16°C° 0 mm 3 mps 748 mmHg 78%
    03:00 +16°C° 0 mm 3 mps 748 mmHg 78%
    04:00 +16°C° 0 mm 3 mps 748 mmHg 79%
    05:00 +17°C° 0 mm 3 mps 748 mmHg 80%
    06:00 +17°C° 0 mm 3 mps 748 mmHg 82%
    07:00 +19°C° 0 mm 3 mps 748 mmHg 78%
    08:00 +20°C° 0 mm 3 mps 748 mmHg 73%
    09:00 +22°C° 0 mm 3 mps 748 mmHg 69%
    10:00 +23°C° 0 mm 4 mps 748 mmHg 66%
    11:00 +25°C° 0 mm 5 mps 748 mmHg 62%
    12:00 +26°C° 0 mm 5 mps 747 mmHg 58%
    13:00 +26°C° 0 mm 5 mps 747 mmHg 59%
    14:00 +26°C° 0 mm 5 mps 747 mmHg 60%
    15:00 +26°C° 0 mm 4 mps 747 mmHg 61%
    16:00 +25°C° 0.3 mm 4 mps 747 mmHg 65%
    17:00 +25°C° 0.3 mm 3 mps 747 mmHg 70%
    18:00 +24°C° 0.3 mm 3 mps 746 mmHg 75%
    19:00 +22°C° 0.1 mm 3 mps 746 mmHg 76%
    20:00 +21°C° 0.1 mm 4 mps 746 mmHg 77%
    21:00 +20°C° 0.1 mm 4 mps 746 mmHg 78%
    22:00 +20°C° 0.1 mm 4 mps 746 mmHg 77%
    23:00 +20°C° 0.1 mm 4 mps 746 mmHg 77%

    28 June, Thursday

    Time Temperature Precipitation Wind Pressure Humidity
    00:00 +19°C° 0.1 mm 4 mps 746 mmHg 76%
    01:00 +19°C° 1 mm 4 mps 746 mmHg 79%
    02:00 +18°C° 1 mm 3 mps 747 mmHg 82%
    03:00 +18°C° 1 mm 3 mps 747 mmHg 84%
    04:00 +18°C° 0.7 mm 4 mps 747 mmHg 85%
    05:00 +18°C° 0.7 mm 4 mps 747 mmHg 86%
    06:00 +18°C° 0.7 mm 4 mps 747 mmHg 87%
    07:00 +19°C° 0.2 mm 4 mps 747 mmHg 86%
    08:00 +20°C° 0.2 mm 4 mps 747 mmHg 85%
    09:00 +20°C° 0.2 mm 5 mps 747 mmHg 83%
    10:00 +21°C° 0.1 mm 5 mps 747 mmHg 81%
    11:00 +22°C° 0.1 mm 5 mps 747 mmHg 78%
    12:00 +23°C° 0.1 mm 6 mps 747 mmHg 75%
    13:00 +24°C° 0 mm 6 mps 747 mmHg 73%
    14:00 +26°C° 0 mm 6 mps 747 mmHg 70%
    15:00 +27°C° 0 mm 6 mps 747 mmHg 67%
    16:00 +26°C° 0.1 mm 6 mps 747 mmHg 69%
    17:00 +26°C° 0.1 mm 6 mps 746 mmHg 71%
    18:00 +25°C° 0.1 mm 5 mps 746 mmHg 74%
    19:00 +23°C° 1.3 mm 5 mps 746 mmHg 78%
    20:00 +21°C° 1.3 mm 5 mps 746 mmHg 82%
    21:00 +19°C° 1.3 mm 4 mps 746 mmHg 87%
    22:00 +19°C° 0.7 mm 4 mps 746 mmHg 87%
    23:00 +19°C° 0.7 mm 4 mps 746 mmHg 87%
    Show more